GFSSW_250_spd_195.txt.gz
Wind_Speed
47 54 54 44 44 46 45 41 38 37 38 36 34 32 37 46 56 60 67 70 72 74 73 71 70 66 63 61 58 56 54 53 54 55 51 46 44 43 39 37 35 34 33 36 47
46 48 55 52 44 45 48 50 46 43 41 42 39 37 34 37 43 53 58 63 64 65 65 65 63 64 60 57 56 54 53 52 53 51 46 41 41 40 39 38 35 32 30 29 34
44 47 49 53 51 49 50 48 53 50 48 44 44 42 38 37 37 42 52 58 61 61 60 58 57 56 56 55 54 52 51 51 49 47 44 41 42 41 39 42 43 38 37 33 33
43 50 53 56 56 54 49 54 52 54 48 51 47 46 43 40 36 39 44 50 53 56 57 57 57 56 54 53 51 49 50 47 45 43 41 41 40 41 42 44 44 43 41 42 39
44 43 54 53 58 61 55 54 58 60 56 54 53 51 47 46 42 40 44 46 48 51 52 53 52 52 51 50 48 49 46 46 44 42 39 39 39 38 41 43 45 45 46 47 48
45 42 47 58 59 63 65 68 62 65 64 58 56 56 54 52 47 46 45 47 46 48 50 51 51 49 48 49 47 45 43 43 42 41 40 40 39 42 45 45 48 48 49 50 52
52 46 46 53 58 63 68 73 70 66 72 68 60 59 60 57 55 50 48 46 48 47 49 51 52 50 49 47 45 44 44 43 44 42 42 40 43 45 45 48 49 52 55 57 58
56 50 49 52 62 69 74 75 76 74 71 77 72 64 65 65 62 59 53 52 53 53 54 55 55 52 52 49 47 46 45 45 44 43 42 42 44 44 45 47 49 50 54 58 61
62 57 54 53 58 67 73 80 79 78 80 76 82 77 70 70 71 64 63 61 59 58 60 61 56 53 53 52 50 48 48 46 44 45 43 42 43 43 43 45 48 50 52 55 61
65 63 61 60 60 63 69 73 83 85 84 82 79 86 80 76 77 72 71 69 67 64 63 63 59 57 56 57 56 53 48 47 47 45 43 43 42 41 41 42 43 44 47 51 55
71 67 64 64 66 65 65 68 72 79 84 88 86 88 88 84 80 82 77 76 73 70 70 67 63 61 66 63 54 52 51 50 47 44 43 43 43 40 40 40 41 40 43 48 52
74 73 70 67 69 69 68 71 74 73 73 79 87 91 94 92 90 87 86 83 82 79 77 71 65 74 66 59 57 56 53 51 48 44 42 43 41 39 41 38 39 40 44 46 50
81 79 77 78 75 77 77 81 85 83 79 80 90 94 99 97 97 94 91 89 86 84 80 78 78 73 66 64 60 58 55 54 49 46 44 42 41 38 38 38 37 40 42 45 47
88 86 84 85 85 87 84 89 88 92 91 85 92 96 102 106 103 102 98 96 92 89 88 84 80 74 70 68 64 60 59 55 52 47 46 43 40 38 36 35 39 39 41 43 42
92 88 82 76 71 76 77 79 77 79 83 84 96 99 107 110 108 108 107 105 99 97 93 88 85 79 73 72 71 65 61 57 54 49 46 42 36 42 35 34 39 35 38 40 38
88 81 74 70 65 69 69 71 72 73 63 63 92 100 110 114 113 112 115 110 106 105 97 94 91 84 78 76 71 68 62 59 56 52 45 45 38 44 36 34 36 33 33 34 32
82 75 71 66 66 64 66 67 69 58 51 58 75 98 113 117 115 116 117 113 111 107 100 98 93 88 83 79 74 70 66 62 58 53 47 49 38 43 39 36 35 32 29 27 26
74 71 65 60 56 56 56 58 57 48 57 60 71 85 105 118 115 116 120 119 117 113 109 104 98 91 88 81 76 75 72 65 61 55 52 50 40 41 39 38 36 32 29 27 23
71 62 57 53 49 50 49 48 42 48 61 63 69 76 86 100 114 119 120 121 118 116 111 107 103 98 94 89 84 77 72 68 63 59 55 50 45 42 39 38 36 35 33 30 27
63 54 54 47 49 49 44 37 40 47 54 59 62 70 76 87 97 115 120 119 121 117 116 111 109 105 98 92 86 80 77 73 66 61 55 52 49 45 40 40 38 37 35 34 31
58 54 49 44 43 42 38 37 41 43 49 57 60 66 72 78 85 98 114 117 121 122 119 115 111 108 102 94 87 83 76 76 70 65 58 54 52 49 44 41 41 39 38 36 36
55 52 43 39 36 32 36 40 43 45 50 54 59 63 69 76 80 88 99 117 119 124 122 115 114 111 103 98 92 86 79 80 75 67 62 57 56 52 48 45 44 44 42 40 38
53 49 40 36 32 31 38 41 43 43 46 50 57 63 67 73 73 77 89 104 119 122 121 118 116 112 107 102 93 84 79 79 74 68 64 61 57 56 51 47 46 45 44 43 43
51 45 37 32 29 31 35 40 40 39 43 50 59 62 65 70 71 74 80 91 103 116 118 122 117 113 107 101 97 87 82 82 77 71 67 63 62 59 53 50 50 48 47 46 46
48 40 35 29 28 30 34 38 38 36 42 52 58 59 65 69 71 74 77 84 94 109 116 118 117 114 111 105 98 92 87 82 78 76 72 68 65 61 57 55 55 54 52 51 51
45 38 34 28 25 26 33 35 35 36 38 48 55 61 64 68 71 73 76 81 89 100 112 116 115 114 111 107 100 95 89 83 80 75 72 71 70 67 61 59 61 59 57 56 56
42 35 31 26 23 25 30 34 34 36 43 49 52 57 64 69 71 74 78 81 86 95 105 113 116 116 113 110 104 96 90 85 82 81 80 74 76 68 65 66 66 64 63 62 62

GFSSW_250_spd_198.txt.gz
Wind_Speed
48 41 41 46 51 53 50 49 50 44 46 46 41 39 38 36 40 57 65 73 80 81 80 78 75 74 72 70 68 66 63 65 66 62 61 61 60 62 61 61 60 58 57 56 53
50 43 42 43 49 49 51 53 53 51 47 50 49 43 42 41 39 37 53 64 69 76 80 81 81 81 78 75 73 70 70 69 64 64 62 58 56 56 55 57 57 55 51 44 41
55 47 42 44 47 55 52 53 55 51 49 48 54 51 46 45 44 42 39 51 62 68 73 76 75 75 77 79 78 76 74 71 68 64 63 59 55 53 53 53 53 49 44 42 41
59 48 43 45 46 53 60 58 56 57 54 54 54 57 56 50 49 46 44 42 51 60 65 69 71 72 72 72 73 73 74 72 66 65 61 58 53 50 49 50 51 47 43 44 44
65 53 44 44 45 51 58 66 63 60 60 56 51 57 60 57 52 51 48 45 43 50 58 65 67 68 68 69 68 68 69 66 63 60 58 54 50 50 50 50 49 47 46 46 46
66 57 48 43 45 49 57 64 69 70 61 62 60 58 58 64 57 54 53 50 45 43 50 59 65 66 65 66 65 65 63 59 58 56 54 52 51 51 51 49 45 44 44 44 46
70 59 52 45 44 47 55 65 69 72 69 64 70 66 62 66 66 60 57 55 52 49 46 54 59 62 66 65 63 61 59 56 56 55 52 51 49 50 44 42 41 41 45 48 50
73 62 55 49 46 47 52 59 71 74 78 72 68 67 65 66 69 68 60 61 58 53 49 53 56 59 61 62 61 59 57 55 56 53 51 49 51 46 44 41 42 44 47 49 51
75 67 61 56 52 48 53 57 67 77 78 80 76 77 72 69 66 73 70 65 65 60 55 53 57 56 57 56 57 55 55 56 55 52 49 47 46 44 44 44 43 44 45 48 50
79 73 66 62 59 56 51 55 63 74 85 85 83 84 80 79 74 72 76 72 70 66 59 53 59 55 52 53 56 60 59 60 55 51 48 47 48 47 47 45 43 42 43 45 47
80 77 74 71 66 61 57 55 57 70 84 94 93 92 90 80 79 76 78 76 73 71 64 60 59 55 63 65 65 62 59 58 55 53 51 50 47 48 47 45 42 41 42 42 44
84 81 77 73 71 69 65 65 64 65 69 83 98 98 95 96 86 82 81 84 79 76 74 65 60 69 68 67 66 62 59 60 59 57 53 49 48 48 47 42 41 41 42 40 42
87 83 79 78 77 74 75 76 78 75 76 74 83 91 102 100 95 92 87 87 88 82 78 74 70 76 72 70 68 67 66 67 63 59 54 50 48 49 45 41 39 40 39 38 39
90 87 84 84 80 79 79 88 87 86 89 74 79 82 94 101 99 96 92 90 93 89 87 81 81 77 75 71 73 72 72 68 66 61 56 51 50 47 43 41 38 39 39 37 39
90 88 88 82 75 69 70 76 81 84 88 73 80 83 90 96 95 100 102 103 96 98 93 87 88 87 79 78 78 77 74 67 65 64 58 53 50 49 43 40 38 40 38 39 38
90 88 83 74 68 65 63 68 74 76 68 58 71 94 94 98 97 104 107 101 100 105 100 94 93 88 84 84 82 80 76 71 68 66 58 55 51 50 46 41 38 41 39 38 36
93 86 78 71 67 61 59 62 64 61 57 56 63 80 102 105 103 105 108 102 103 106 102 98 95 91 89 88 84 82 79 73 70 65 56 58 55 53 48 42 40 41 40 39 36
92 80 75 68 58 52 50 47 42 43 46 52 61 71 83 106 111 110 110 107 108 109 107 106 100 95 91 91 87 86 85 78 74 67 62 64 56 54 51 45 41 42 40 39 37
87 78 72 59 51 48 48 41 35 40 43 52 63 71 79 91 103 115 112 111 112 113 112 109 105 101 98 96 95 90 86 81 76 73 66 64 59 57 53 48 44 42 40 39 38
84 77 65 53 50 48 46 43 38 43 42 46 55 68 76 82 93 104 115 112 111 113 115 114 112 108 102 100 97 92 91 87 79 74 70 63 61 59 57 52 46 44 42 40 38
81 74 58 53 49 45 41 40 40 45 43 44 52 62 73 79 83 92 102 113 112 114 117 116 114 112 109 104 97 95 91 87 81 75 71 64 63 64 60 56 50 47 45 42 40
79 67 56 51 47 40 37 37 39 43 42 44 48 55 67 73 75 81 88 108 113 115 115 116 119 116 110 107 103 98 95 90 85 77 74 70 66 69 65 59 54 51 49 46 43
74 61 55 48 40 35 32 31 35 38 42 43 45 51 60 67 71 76 83 95 113 115 114 114 118 116 115 111 106 100 96 92 86 82 74 72 66 70 68 63 59 55 52 48 47
70 58 54 44 35 31 30 26 31 33 37 40 45 50 56 61 66 70 76 84 99 114 113 117 115 110 107 104 103 100 97 96 92 87 79 74 73 74 74 70 64 59 56 53 51
65 55 50 40 32 27 26 26 26 32 37 39 41 46 50 56 62 65 71 76 84 99 114 114 110 110 108 110 108 105 103 101 94 89 84 80 77 76 76 72 67 66 63 58 55
60 53 46 36 29 24 23 23 24 25 32 36 38 44 50 56 60 63 66 71 76 84 95 108 112 109 109 109 108 107 104 100 96 90 85 83 81 79 75 74 73 71 68 65 60
57 50 42 33 27 23 20 20 19 25 30 33 37 44 48 54 59 60 63 66 70 75 80 87 100 115 111 107 110 108 103 100 97 92 88 83 86 82 77 77 75 74 72 68 66

GFSSW_250_spd_201.txt.gz
Wind_Speed
72 61 52 46 41 42 45 49 52 51 48 48 44 43 45 47 44 46 60 78 90 85 84 85 84 84 84 82 79 76 71 69 69 70 67 64 66 65 63 59 61 60 61 61 61
75 66 54 47 42 43 47 49 54 53 51 52 48 45 43 48 50 46 46 52 66 84 92 87 86 87 83 81 79 76 72 74 72 72 69 65 63 63 62 61 61 61 63 64 63
78 67 57 48 43 44 47 51 54 60 58 54 52 51 48 48 54 53 49 47 45 58 70 84 87 87 83 79 78 76 74 74 72 68 66 64 60 59 59 60 62 62 61 60 60
80 66 59 49 45 43 47 53 56 58 64 57 58 57 53 50 51 58 54 50 48 45 50 61 72 78 83 85 81 77 77 75 72 69 67 65 62 62 59 60 61 62 59 58 59
79 68 58 52 45 44 46 52 57 60 64 67 62 60 58 55 54 57 60 55 53 49 46 45 55 66 73 80 82 80 80 77 76 74 72 71 68 63 63 63 64 62 60 57 55
80 70 60 52 47 44 45 49 57 62 64 70 71 66 62 62 59 55 62 63 58 54 50 48 46 53 64 72 75 80 81 79 76 74 74 73 70 67 67 67 64 61 58 57 55
84 74 64 56 47 43 42 47 52 62 66 68 72 73 67 71 66 59 59 65 64 59 56 52 48 45 52 63 68 71 76 77 74 71 71 68 66 70 66 64 60 59 57 54 51
87 78 69 58 49 44 42 42 49 57 67 69 71 73 73 81 69 70 67 62 64 65 58 57 51 45 44 53 62 66 68 68 69 68 68 67 70 66 63 60 58 57 55 52 49
91 85 75 63 55 49 44 43 47 56 64 70 73 73 73 85 80 75 72 66 65 66 66 58 56 50 46 46 55 61 62 67 69 68 66 64 66 62 58 57 56 55 50 48 46
94 88 78 70 63 55 47 43 45 48 62 69 74 77 79 83 85 84 76 72 69 67 68 66 59 56 50 45 50 60 66 66 68 68 65 62 63 59 56 55 53 51 48 46 44
99 90 80 74 68 63 57 50 49 48 54 70 75 82 84 85 83 85 86 80 74 72 71 72 62 58 62 59 57 61 64 66 66 65 62 60 59 57 55 54 53 49 47 45 45
99 91 84 76 71 66 63 60 64 58 55 59 70 76 87 88 89 88 88 85 81 75 77 73 68 66 68 62 57 60 62 64 63 62 60 60 59 57 53 53 49 47 48 46 46
99 91 85 79 72 69 68 69 73 75 65 58 63 71 85 91 94 92 89 90 90 84 78 75 76 74 68 67 59 60 62 62 60 59 59 60 59 54 53 50 48 48 48 48 45
99 92 87 80 74 73 71 74 78 81 75 67 63 66 82 90 97 100 97 93 90 90 85 77 77 78 70 68 64 60 65 62 59 62 62 60 59 54 53 52 48 47 49 47 44
99 93 85 81 75 71 65 66 68 73 71 66 68 69 78 85 93 100 107 108 100 93 90 83 82 84 77 73 73 70 72 68 66 65 62 59 58 56 54 51 49 47 47 46 41
100 93 86 82 72 62 58 58 57 64 57 54 66 77 81 86 92 100 105 110 106 107 98 86 85 83 82 79 77 73 77 71 66 64 60 61 57 57 54 53 50 48 46 45 42
101 94 88 78 69 61 54 51 46 47 44 46 61 74 85 91 93 103 105 105 105 108 103 99 89 85 86 86 80 77 78 75 68 66 60 63 59 59 57 55 51 50 48 44 41
101 96 87 74 67 57 48 43 35 36 36 39 52 66 76 89 92 100 109 108 107 104 103 103 101 94 89 90 84 85 84 77 71 67 65 70 58 60 61 59 55 51 48 45 42
101 95 83 72 64 54 43 39 38 36 38 39 48 60 73 82 89 97 104 108 109 106 103 103 101 101 97 99 97 90 86 82 77 74 71 70 61 64 63 61 58 54 51 49 44
102 92 77 70 59 50 42 40 40 38 40 40 46 52 66 78 85 93 99 104 107 108 107 104 106 104 102 101 102 94 95 91 82 76 72 70 66 63 65 64 60 58 54 52 48
100 88 75 66 55 48 43 41 36 35 36 38 48 50 59 71 82 87 92 101 106 109 108 105 105 106 108 101 99 100 92 89 84 78 74 70 69 67 67 67 64 59 57 54 52
98 84 72 63 53 47 44 40 35 33 33 35 40 49 52 62 75 83 86 90 102 108 108 105 104 105 108 105 105 106 98 95 89 81 78 75 74 70 70 70 66 63 60 58 55
94 80 71 59 51 47 41 37 35 31 30 30 37 45 50 54 62 74 79 82 90 105 109 107 106 103 105 102 108 108 100 93 88 84 79 76 73 72 71 72 71 67 63 61 59
89 78 68 56 51 45 40 35 33 27 26 28 35 42 45 47 53 62 74 78 81 90 107 110 105 102 97 90 101 104 101 94 90 85 81 78 76 78 75 73 72 69 66 63 62
85 75 64 54 49 43 39 32 27 23 24 27 30 36 41 44 49 56 65 71 76 82 93 107 104 103 100 97 104 108 108 105 96 88 86 81 79 82 79 75 71 70 70 68 65
81 73 62 52 46 40 34 27 24 21 23 27 28 33 36 38 42 45 53 65 72 77 82 89 102 106 102 98 103 108 109 106 98 92 87 83 81 80 77 75 73 73 73 71 68
78 70 58 52 45 38 31 25 20 21 22 25 26 30 35 39 42 47 52 60 67 70 73 78 84 99 108 102 101 104 101 100 99 95 90 85 86 88 81 79 77 76 73 72 71

GFSSW_250_spd_207.txt.gz
Wind_Speed
65 61 63 62 50 42 38 36 41 44 49 52 57 59 59 57 56 55 58 56 63 80 92 89 88 86 85 78 75 78 74 72 74 74 73 72 70 69 66 66 64 66 70 73 72
66 67 62 59 51 46 40 39 38 45 48 55 57 62 64 62 60 60 57 61 59 65 83 95 91 92 88 86 85 83 79 79 80 75 74 72 67 64 63 65 67 68 66 68 69
69 66 66 63 54 48 42 39 41 42 50 53 59 63 67 67 66 64 62 60 62 63 66 85 96 94 91 93 87 83 83 86 83 85 81 77 73 70 67 66 68 68 66 65 64
75 69 68 61 56 49 44 40 39 42 46 54 59 64 68 71 69 70 68 66 63 62 66 65 78 98 98 93 95 92 86 87 87 86 84 81 77 76 73 70 67 65 65 64 65
77 71 70 63 58 54 46 41 38 41 45 51 59 64 69 71 74 72 74 71 69 65 62 67 65 75 95 100 99 94 94 88 86 88 87 85 82 78 73 69 72 66 67 65 65
82 77 75 68 61 56 51 43 39 40 44 49 56 63 69 70 77 77 77 77 74 72 67 65 67 66 72 92 95 96 98 95 91 86 85 84 82 77 78 77 76 71 71 68 67
86 82 79 72 66 58 53 47 43 40 43 49 54 61 68 75 81 81 82 82 79 77 75 70 65 67 65 69 85 97 99 98 95 95 92 89 84 79 83 81 79 76 74 72 70
88 89 87 81 72 63 57 51 46 43 44 47 53 57 60 77 83 80 84 83 84 81 81 77 71 67 67 64 65 76 93 98 94 98 97 96 90 90 87 85 82 80 80 78 74
91 92 95 83 75 68 61 53 50 46 44 46 49 56 58 71 77 85 84 88 85 91 85 82 79 71 68 66 68 63 65 78 95 98 95 95 94 93 89 88 85 82 79 76 72
96 98 93 87 78 73 66 59 55 49 48 44 47 51 60 69 80 84 88 90 92 92 87 86 82 77 69 69 64 64 62 62 68 84 97 97 88 91 91 86 84 79 77 73 70
103 101 96 88 81 74 70 62 61 54 50 47 47 51 59 71 81 80 86 91 96 97 93 88 86 73 69 73 76 73 68 64 63 63 74 83 91 92 87 84 82 79 76 72 70
108 102 93 87 83 77 71 64 62 60 55 56 52 53 62 67 79 84 83 89 92 96 98 94 84 84 81 77 78 73 69 66 64 57 57 66 75 82 85 80 80 80 78 77 74
110 101 92 88 84 79 71 65 62 63 55 62 59 53 64 70 75 87 87 86 90 98 99 95 92 92 87 83 73 73 71 71 65 60 57 55 66 73 75 76 73 73 76 73 71
109 100 94 90 84 80 73 66 62 58 49 55 58 52 63 73 74 80 88 87 87 92 94 96 100 96 92 87 82 74 75 73 68 67 61 54 55 65 68 67 67 68 66 67 68
103 99 96 91 86 81 74 68 62 53 45 47 52 53 59 70 80 81 87 90 85 88 93 90 95 99 93 87 85 79 78 75 73 67 62 54 49 55 61 61 60 62 62 62 61
103 100 98 93 87 82 74 68 60 51 46 45 50 53 56 63 80 86 84 88 89 93 93 97 95 102 99 96 90 87 78 75 73 71 62 56 47 48 56 60 62 61 59 59 58
102 100 99 94 89 82 75 67 58 51 44 40 44 48 54 61 69 84 86 86 89 90 89 93 93 95 102 99 95 91 84 81 76 69 56 58 49 45 48 61 63 62 61 60 59
103 101 99 94 88 81 74 65 57 46 38 33 37 42 48 57 65 80 90 89 88 90 92 93 97 91 98 102 98 90 91 83 76 68 63 61 52 45 53 59 61 63 62 58 57
104 101 98 93 87 80 73 62 54 42 33 29 34 41 43 47 58 72 89 90 87 87 92 97 96 96 90 106 104 103 88 90 83 74 66 62 58 53 60 60 60 61 62 57 55
103 100 97 92 85 78 69 59 50 39 31 28 30 37 43 45 49 63 78 90 90 90 93 96 101 96 99 93 107 99 98 90 84 78 70 63 63 60 62 62 60 60 61 58 55
101 99 96 90 83 76 66 57 46 36 29 25 26 33 42 46 48 55 68 83 93 93 93 94 97 99 100 99 95 105 102 94 84 84 74 70 66 65 65 64 63 62 61 57 56
100 96 93 87 80 74 62 55 44 36 29 25 24 28 37 46 49 51 60 75 89 94 94 93 95 96 101 104 101 97 97 101 94 79 77 75 71 68 67 64 67 63 63 60 58
98 93 89 83 77 70 60 53 42 36 30 24 22 26 33 41 48 52 56 65 78 92 97 97 95 97 100 101 101 96 94 87 90 93 84 81 74 71 71 69 71 69 65 63 62
95 91 85 80 75 67 58 50 40 35 30 24 20 23 29 35 45 51 56 59 69 84 99 101 96 96 94 97 99 102 94 90 89 87 87 82 80 75 74 75 73 74 68 63 62
91 88 82 78 72 64 56 47 40 35 31 23 18 22 28 33 39 46 52 57 61 74 91 98 96 97 95 97 99 97 104 100 95 91 80 82 80 80 76 74 74 77 73 66 60
89 85 80 75 70 63 55 45 38 34 29 23 19 20 26 30 35 41 47 53 54 63 76 90 96 98 97 97 95 93 97 102 97 93 85 79 82 81 81 78 77 77 77 71 65
86 83 77 73 68 60 54 45 38 33 28 22 19 20 24 26 31 38 43 46 51 54 62 75 89 97 96 97 95 93 85 96 92 92 83 76 77 79 80 82 80 79 82 78 71

GFSSW_250_spd_210.txt.gz
Wind_Speed
71 68 58 55 52 53 53 52 51 46 46 47 52 56 60 61 60 61 61 60 60 77 89 91 90 91 90 90 84 86 80 73 81 81 80 76 73 71 67 67 68 63 65 70 70
75 71 63 60 62 60 54 51 52 50 47 49 52 55 60 64 65 65 64 64 65 65 87 94 95 93 93 89 89 85 80 78 80 84 81 74 78 76 73 70 67 65 64 65 66
74 70 70 65 62 61 57 52 52 48 46 48 53 57 59 64 68 67 70 70 69 69 70 93 100 97 95 93 89 88 81 82 82 80 83 76 82 78 76 72 72 68 65 66 63
77 73 72 68 65 63 61 54 50 49 45 46 52 57 61 63 69 73 75 75 75 71 73 72 95 101 99 95 91 90 89 88 85 81 80 81 82 73 74 75 73 69 68 68 66
79 77 79 73 68 67 64 59 52 49 46 47 49 55 60 61 68 75 77 78 77 78 74 76 75 89 105 101 99 92 93 91 89 84 86 86 81 78 80 70 72 65 70 67 62
80 83 84 77 78 73 66 58 54 51 48 45 47 51 55 56 73 74 82 81 81 82 82 76 75 75 86 108 100 98 96 96 92 88 90 87 85 83 80 77 80 73 75 68 68
85 89 87 84 84 75 68 62 56 51 50 46 45 47 49 62 71 76 80 84 85 84 86 84 79 81 76 83 108 98 93 96 94 93 93 89 85 82 85 84 83 78 77 75 73
91 94 98 94 87 79 69 64 60 55 50 48 44 42 44 62 71 73 79 85 89 88 89 90 88 81 76 76 79 106 103 96 95 98 95 93 88 87 89 88 87 85 81 79 76
100 101 101 96 88 78 72 66 63 59 53 49 45 40 43 62 67 75 79 84 91 93 92 92 93 89 82 75 75 73 90 104 100 98 100 96 90 91 92 89 88 87 85 83 79
107 103 99 94 86 79 74 70 66 60 56 50 46 42 47 61 72 76 81 85 89 95 98 97 93 91 86 76 63 68 71 75 94 109 100 99 98 98 94 89 88 86 86 83 80
109 103 96 90 85 79 75 71 68 63 57 53 46 45 47 58 67 75 78 83 88 94 97 96 94 88 88 82 78 78 75 75 73 89 111 99 97 101 99 95 90 85 83 81 80
107 103 94 89 86 80 76 71 69 62 55 55 53 49 53 59 65 74 78 78 85 87 95 97 91 91 93 91 87 82 75 73 75 69 75 101 104 98 93 94 93 93 91 89 88
105 99 92 87 86 81 77 73 68 60 50 63 57 56 59 65 68 74 78 80 82 87 90 94 93 99 96 96 92 86 76 76 75 68 64 70 79 90 98 98 93 88 87 87 84
102 97 91 88 86 83 80 76 70 59 52 57 54 56 57 59 66 78 77 84 83 82 87 93 99 101 97 93 98 91 83 81 77 70 70 67 59 58 65 76 92 96 92 86 81
99 95 92 89 88 86 82 76 69 60 56 51 49 46 52 51 67 73 82 84 83 80 87 83 98 97 99 92 96 94 92 87 79 73 75 65 59 58 54 50 55 67 77 83 83
98 96 93 92 90 87 84 76 69 60 57 50 47 43 46 50 56 70 78 86 87 86 83 90 96 103 97 101 99 98 96 90 83 77 70 65 59 56 52 50 49 56 64 70 75
99 98 95 93 91 88 84 76 69 63 56 47 44 40 39 45 52 61 73 83 85 79 80 86 89 99 101 102 101 99 96 95 87 79 65 66 62 56 54 49 47 49 57 64 68
100 99 96 94 91 88 83 76 68 63 54 46 40 38 35 37 45 55 68 78 82 81 80 84 89 91 100 98 101 100 96 95 89 76 66 68 58 55 58 54 50 46 54 61 63
99 99 97 94 90 87 81 74 67 61 52 43 37 37 35 34 39 48 60 73 79 83 80 79 83 90 97 99 106 103 103 97 90 84 76 70 62 59 65 59 55 50 50 56 57
101 99 96 93 90 86 79 72 66 58 48 39 35 35 35 33 35 42 52 66 76 82 82 82 84 88 96 98 97 99 105 100 93 89 81 72 69 64 68 65 61 53 50 50 60
100 97 94 91 89 84 76 71 65 55 45 37 32 32 32 33 34 41 48 59 71 81 86 88 85 87 92 93 90 94 101 101 93 89 83 76 68 67 67 67 65 60 52 48 51
98 95 92 89 86 80 73 69 61 52 43 35 30 29 28 33 36 41 47 53 63 77 87 88 84 83 87 95 95 92 98 103 99 89 83 80 74 70 69 66 65 63 56 51 50
96 92 90 88 83 76 70 66 57 49 40 33 29 26 27 31 34 38 48 52 57 69 85 89 86 85 84 92 94 89 91 96 98 97 90 89 81 75 72 69 67 65 62 54 50
94 90 88 85 79 72 67 62 55 47 38 33 28 25 25 28 33 37 43 51 55 63 75 87 87 84 80 86 93 95 87 88 96 100 91 85 84 80 73 71 70 67 64 59 53
91 88 84 82 76 71 65 59 52 46 38 32 28 25 24 27 31 36 40 47 53 57 72 82 88 86 83 85 94 94 96 91 86 86 99 90 83 83 79 75 68 68 67 63 58
88 86 83 78 73 68 64 57 50 46 37 32 27 24 23 24 28 32 37 40 49 58 69 75 86 90 88 86 87 92 97 96 86 85 89 99 90 86 83 82 78 73 69 68 62
86 83 80 75 71 66 62 55 49 42 37 31 26 22 22 21 25 29 31 36 44 54 60 63 72 81 87 87 89 88 85 93 90 88 82 87 88 90 80 83 83 78 73 68 65